Location: Be Tobo
(6.6442°N, 10.6239°W)
Time: 00:47:51
(UTC+00:00)

H-2A R/B - Pass Details

Date: 18 September 2020
Orbit: 734 x 836 km, 98.2° (Epoch: 21 October)

Event Time Altitude Azimuth Distance (km) Brightness Sun altitude
Exits shadow 20:49:27 38° 251° (WSW) 1,117 3.1 -32.8°
Maximum altitude 20:49:43 38° 259° (WSW) 1,112 3.2 -32.9°
Drops below altitude 10° 20:54:15 10° 326° (NNW) 2,236 4.8 -34.0°
Sets 20:56:40 0° 335° (NNW) 3,165 5.6 -34.6°
